Simultaneous Nadir Overpasses (SNOs) Predictions

Prediction of SNOs between GOES-17 and METOP-C Satellite Orbit:

Table of predicted SNOs for the next 14.0 days since TLE Epoch: 9/21/2024
Index Date Time (GOES-17) GOES-17 Lat,Lon METOP-C Lat,Lon Distance(km) Time Diff (sec)
1 09/21/2024 16:20:06 -0.01,-104.73 -0.61,-102.04 306.72 80
2 09/23/2024 04:39:07 -0.01,-104.67 -0.47,-106.62 222.68 80
3 09/24/2024 04:15:48 -0.02,-104.67 0.67,-101.63 346.15 80
4 09/25/2024 16:34:40 0.02,-104.72 0.34,-106.20 167.98 80
5 09/26/2024 16:16:41 0.02,-104.72 -0.75,-101.20 401.14 80
6 09/28/2024 04:35:42 -0.01,-104.67 -0.26,-105.80 128.58 80
7 09/29/2024 04:12:23 0.00,-104.67 0.84,-100.80 440.30 80
8 09/30/2024 16:31:15 -0.01,-104.72 0.13,-105.37 73.17 80
9 10/01/2024 16:13:16 -0.01,-104.73 -0.97,-100.37 496.41 80
10 10/03/2024 04:32:17 0.02,-104.68 -0.02,-104.97 32.32 80
